Regional Weather Roundup
Issued by NWS

Home | Current Version | Previous Version | Graphics & Text | Print | Product List | Glossary On
Versions: 1 2 3 4 5 6 7 8 9 10 11 12 13 14 15 16 17 18 19 20 21 22 23 24 25 26 27 28 29 30 31 32 33 34 35 36 37 38 39 40 41 42 43 44 45 46 47 48 49 50
000
ASUS43 KFSD 301610
RWRSD

WEATHER ROUNDUP FOR SOUTH DAKOTA
NATIONAL WEATHER SERVICE SIOUX FALLS SD
1100 AM CDT FRI SEP 30 2016

NOTE: "FAIR" INDICATES FEW OR NO CLOUDS BELOW 12,000 FEET WITH NO
SIGNIFICANT WEATHER AND/OR OBSTRUCTIONS TO VISIBILITY.


SDZ001>005-009-010-012>017-301700-
NORTHWEST AND NORTH CENTRAL SOUTH DAKOTA

CITY           SKY/WX    TMP DP  RH WIND       PRES   REMARKS
BUFFALO          N/A     63  45  51 S10       30.02R
FAITH            N/A     58  44  60 SE22      30.08F
MOBRIDGE       MOSUNNY   66  47  50 S23G30    30.14S
$$

SDZ012>016-024>037-041>051-057-063-072>074-301700-
SOUTHWEST AND SOUTH CENTRAL SOUTH DAKOTA

CITY           SKY/WX    TMP DP  RH WIND       PRES   REMARKS
RAPID CTY ARPT PTSUNNY   61  45  55 S14       30.08S
PIERRE         MOSUNNY   63  47  55 SE15      30.18S
CUSTER         CLOUDY    65  46  50 W13G18    30.19S
ELLSWORTH AFB  PTSUNNY   61  46  56 S12       30.06F
PHILIP         MOSUNNY   64  46  52 S22       30.12S
PINE RIDGE     CLOUDY    58  44  60 S16G25    30.14F
WINNER         FAIR      63  48  58 S16       30.23S
$$

SDZ004>011-016>023-039-040-301700-
NORTHEAST SOUTH DAKOTA

CITY           SKY/WX    TMP DP  RH WIND       PRES   REMARKS
ABERDEEN       PTSUNNY   64  47  53 S14       30.28F
WATERTOWN      SUNNY     63  51  65 S10       30.32F
BROOKINGS      SUNNY     61  52  72 SE9         N/A
SISSETON         N/A     56  50  80 S10       30.32F
$$

SDZ017-020-022-023-036>040-048>070-301700-
SOUTHEAST SOUTH DAKOTA

CITY           SKY/WX    TMP DP  RH WIND       PRES   REMARKS
SIOUX FALLS    MOSUNNY   64  52  64 S8        30.32F
HURON          SUNNY     63  49  60 S13       30.28F
CHAMBERLAIN    SUNNY     65  51  60 SE14G20   30.25F
MITCHELL       SUNNY     63  49  60 SE9       30.30F
YANKTON        SUNNY     61  52  72 SE5       30.29F
$$

ABBREVIATIONS USED IN REMARKS
   TC - TEMPERATURE IN CELSIUS
  WCI - WIND CHILL INDEX
   HX - HEAT INDEX
  VSB - VISIBILITY





USA.gov is the U.S. government's official web portal to all federal, state and local government web resources and services.